Regional Weather Roundup
Issued by NWS Portland, ME

Current Version | Previous Version | Text Only | Print | Product List | Glossary Off
Versions: 1 2 3 4 5 6 7 8 9 10 11 12 13 14 15 16 17 18 19 20 21 22 23 24 25 26 27 28 29 30 31 32 33 34 35 36 37 38 39 40 41 42 43 44 45 46 47 48 49 50
000 ASUS41 KGYX 230110 RWRGYX WEATHER ROUNDUP FOR MAINE AND NEW HAMPSHIRE NATIONAL WEATHER SERVICE GRAY ME 900 PM EDT MON SEP 22 2014 MEZ002-005-006-010-012-015-018-020-021-024-026-027-029-230200- MAINE CITY SKY/WX TMP DP RH WIND PRES REMARKS PORTLAND PTCLDY 53 39 59 NW9 29.96R SANFORD PTCLDY 54 36 50 W10G21 29.98R BAR HARBOR PTCLDY 54 43 66 W7G16 29.89R WISCASSET PTCLDY 52 38 58 CALM 29.96R ROCKLAND CLEAR 54 36 50 NW10G18 29.92R FRYEBURG PTCLDY 50 35 56 W10G18 29.98R LEWISTONAUBURN PTCLDY 50 36 57 W5 29.96R AUGUSTA PTCLDY 51 36 56 W12G20 29.95R WATERVILLE CLEAR 52 34 50 W8 29.89R BANGOR MOCLDY 53 37 54 W9 29.90R GREENVILLE N/A 46 38 73 VRB6G20 29.85R MILLINOCKET MOCLDY 51 42 71 W13G25 29.86R HOULTON CLEAR 49 39 68 W13G18 29.78R PRESQUE ISLE MOCLDY 48 37 66 W13 29.75R FRENCHVILLE PTCLDY 45 38 76 W13G23 29.71R CARIBOU MOCLDY 48 41 76 W9 29.74R $$ NHZ002-005-008-009-011-012-014-230200- NEW HAMPSHIRE CITY SKY/WX TMP DP RH WIND PRES REMARKS PORTSMOUTH PTCLDY 57 39 52 W15G21 29.97R ROCHESTER MOCLDY 53 42 66 NW12 29.98R NASHUA PTCLDY 56 40 55 W14 30.02R MANCHESTER PTCLDY 55 34 45 NW15G29 30.01R CONCORD PTCLDY 52 36 54 NW12G22 30.01R LACONIA MOCLDY 52 36 54 NW9 30.00R PLYMOUTH CLOUDY 51 40 67 NW9 30.02R BERLIN LGT RAIN 47 36 65 VRB7G20 29.98R WHITEFIELD CLOUDY 47 35 63 W9 30.01R JAFFREY CLEAR 51 35 54 NW8G17 30.04R LEBANON MOCLDY 52 35 52 NW7 30.03R MT WASHINGTON FOG 25 25 100 NW67G79 N/A VSB 1/16WCI 2 $$ VTZ005-007-008-230200- VERMONT CITY SKY/WX TMP DP RH WIND PRES REMARKS ST JOHNSBURY N/A 48 36 63 MISG 30.00R MONTPELIER CLEAR 47 35 63 W12G22 30.05R BURLINGTON CLOUDY 52 39 61 NW8 30.05R $$ MAZ007-012-024-CTZ003-RIZ002-NYZ038-NYZ072-230200- SOUTHERN NEW ENGLAND AND NY CITY SKY/WX TMP DP RH WIND PRES REMARKS BOSTON CLEAR 58 40 51 W16 30.01R WORCESTER CLEAR 49 37 63 W13 30.04R NANTUCKET CLEAR 62 48 60 NW8 29.97R PROVIDENCE PTCLDY 57 40 52 NW16G23 30.04R HARTFORD MOCLDY 54 39 57 NW8 30.07R ALBANY MOCLDY 51 40 65 W5 30.10R NEW YORK CITY MOCLDY 60 42 51 NW15G23 30.10R $$ ANZ081-ANZ082-ANZ150-NHZ014-MEZ023>029-230200- COASTAL MARINE OBSERVATIONS STATION/POSITION TIME TEMP WIND PRES WAVE AIR SEA DIR/SP/G HT/PER (UTC) (F) (DEG/KT/KT) (MB) (FT/S) MATINICUS ROCK 0100 320/ 25/ 28 1012.6R PORTLAND WX BUOY 0050 57 57 320/ 16/ 17 1013.8R 6/10 WELLS 0000 58 51 320/ 7/ 14 1012.5R ISLE OF SHOALS 0100 59 300/ 23/ 28 1014.0R CASHES LEDGE BUO 0050 59 58 1012.5R 7/ 9 $$ .............KEY.............. WCI - WIND CHILL TC - TEMPERATURE IN CELSIUS VSB - VISIBILITY IN MILES HX - HEAT INDEX FAIR- INDICATES FEW OR NO CLOUDS BELOW 12,000 FT, WITH NO SIGNIFICANT WEATHER AND/OR OBSTRUCTIONS TO VISIBILITY.

USA.gov is the U.S. government's official web portal to all federal, state and local government web resources and services.